Location: ???
(35.5616°N, 139.7977°E)
Time: 19:11:28
(UTC+00:00)

Cosmos 1452 Rocket - Pass Details

Date: 17 November 2025
Orbit: 763 x 770 km, 74.1° (Epoch: 08 December)

Event Time Altitude Azimuth Distance (km) Brightness Sun altitude
Rises 20:14:06 0° 212° (SSW) 3,213 6.5 -13.3°
Reaches altitude 10° 20:16:33 10° 219° (SW) 2,290 5.7 -12.9°
Maximum altitude 20:21:31 44° 291° (WNW) 1,042 3.8 -11.9°
Drops below altitude 10° 20:26:30 10° 4° (N) 2,303 5.9 -10.9°
Sets 20:29:00 0° 11° (N) 3,233 6.7 -10.4°
